Wetterdaten: aktuell Montag, 27.05.2019 09:20
Datum Zeit Temp. I. Temp. A. Feuchte A. Luftdruck Regen Wind Richtung Richtung Sonnenschein Taupunkt Windchill Windben
27.05.2019 09:20 21,6 C 20,8 C 54 % 1007,5 hPa 0,0 l/m 4,3 km/h (1 Bft) W-SW 247 10 min 11,1 C 20,8 C 5,3 km/h (1 Bft)
27.05.2019 09:10 21,6 C 20,4 C 54 % 1007,5 hPa 0,0 l/m 4,0 km/h (1 Bft) SO 135 10 min 10,8 C 20,4 C 9,2 km/h (2 Bft)
27.05.2019 09:00 21,5 C 20,0 C 54 % 1007,8 hPa 0,0 l/m 3,2 km/h (1 Bft) SO 135 10 min 10,4 C 20,0 C 6,9 km/h (2 Bft)
27.05.2019 08:50 21,5 C 19,5 C 54 % 1007,8 hPa 0,0 l/m 4,5 km/h (1 Bft) SW 225 0 min 9,9 C 19,5 C 7,2 km/h (2 Bft)
27.05.2019 08:40 21,5 C 19,5 C 53 % 1007,6 hPa 0,0 l/m 4,7 km/h (1 Bft) S-SW 202 0 min 9,7 C 19,5 C 12,1 km/h (2 Bft)
27.05.2019 08:30 21,4 C 19,1 C 54 % 1007,6 hPa 0,0 l/m 4,2 km/h (1 Bft) S 180 0 min 9,6 C 19,1 C 4,5 km/h (1 Bft)
27.05.2019 08:20 21,4 C 18,1 C 57 % 1007,6 hPa 0,0 l/m 4,0 km/h (1 Bft) SO 135 0 min 9,4 C 18,1 C 0,0 km/h (0 Bft)
27.05.2019 08:10 21,4 C 17,9 C 56 % 1007,6 hPa 0,0 l/m 4,8 km/h (1 Bft) W-SW 247 0 min 9,0 C 17,9 C 4,3 km/h (1 Bft)
27.05.2019 08:00 21,4 C 17,7 C 57 % 1007,5 hPa 0,0 l/m 4,8 km/h (1 Bft) S-SO 157 0 min 9,1 C 17,7 C 8,9 km/h (2 Bft)
27.05.2019 07:50 21,4 C 17,4 C 57 % 1007,5 hPa 0,0 l/m 4,7 km/h (1 Bft) S 180 0 min 8,8 C 17,4 C 5,0 km/h (1 Bft)
27.05.2019 07:40 21,4 C 17,0 C 57 % 1007,4 hPa 0,0 l/m 5,0 km/h (1 Bft) S 180 10 min 8,4 C 17,0 C 19,3 km/h (3 Bft)
27.05.2019 07:30 21,4 C 16,6 C 59 % 1007,4 hPa 0,0 l/m 5,3 km/h (1 Bft) S 180 0 min 8,6 C 16,6 C 6,8 km/h (2 Bft)
27.05.2019 07:20 21,4 C 16,4 C 59 % 1007,5 hPa 0,0 l/m 4,2 km/h (1 Bft) SO 135 0 min 8,4 C 16,4 C 11,3 km/h (2 Bft)
27.05.2019 07:10 21,4 C 16,0 C 59 % 1007,5 hPa 0,0 l/m 5,0 km/h (1 Bft) N-NW 337 0 min 8,0 C 16,0 C 6,4 km/h (2 Bft)
27.05.2019 07:00 21,4 C 15,8 C 60 % 1007,6 hPa 0,0 l/m 4,8 km/h (1 Bft) SW 225 0 min 8,1 C 15,8 C 7,6 km/h (2 Bft)
27.05.2019 06:50 21,4 C 15,9 C 59 % 1007,6 hPa 0,0 l/m 4,7 km/h (1 Bft) O-SO 112 0 min 7,9 C 15,9 C 7,9 km/h (2 Bft)
27.05.2019 06:40 21,4 C 15,9 C 59 % 1007,7 hPa 0,0 l/m 5,3 km/h (1 Bft) NW 315 0 min 7,9 C 15,9 C 5,3 km/h (1 Bft)
27.05.2019 06:30 21,4 C 15,7 C 59 % 1007,7 hPa 0,0 l/m 5,1 km/h (1 Bft) SW 225 0 min 7,7 C 15,7 C 9,7 km/h (2 Bft)
27.05.2019 06:20 21,4 C 15,5 C 60 % 1007,6 hPa 0,0 l/m 4,0 km/h (1 Bft) W 270 0 min 7,8 C 15,5 C 9,5 km/h (2 Bft)
27.05.2019 06:10 21,4 C 15,5 C 60 % 1007,6 hPa 0,0 l/m 3,7 km/h (1 Bft) SW 225 0 min 7,8 C 15,5 C 4,8 km/h (1 Bft)
27.05.2019 06:00 21,4 C 15,6 C 60 % 1007,6 hPa 0,0 l/m 5,6 km/h (1 Bft) SW 225 0 min 7,9 C 15,6 C 10,1 km/h (2 Bft)
27.05.2019 05:50 21,4 C 15,5 C 60 % 1007,6 hPa 0,0 l/m 5,1 km/h (1 Bft) S 180 0 min 7,8 C 15,5 C 6,9 km/h (2 Bft)
27.05.2019 05:40 21,4 C 15,5 C 59 % 1007,6 hPa 0,0 l/m 4,5 km/h (1 Bft) SO 135 0 min 7,5 C 15,5 C 8,5 km/h (2 Bft)
27.05.2019 05:30 21,4 C 15,5 C 59 % 1007,6 hPa 0,0 l/m 4,0 km/h (1 Bft) SO 135 0 min 7,5 C 15,5 C 7,2 km/h (2 Bft)
27.05.2019 05:20 21,4 C 15,4 C 59 % 1007,5 hPa 0,0 l/m 4,3 km/h (1 Bft) S 180 0 min 7,4 C 15,4 C 5,6 km/h (1 Bft)
27.05.2019 05:10 21,4 C 15,4 C 59 % 1007,5 hPa 0,0 l/m 5,3 km/h (1 Bft) S 180 0 min 7,4 C 15,4 C 10,0 km/h (2 Bft)
27.05.2019 05:00 21,4 C 15,4 C 59 % 1007,6 hPa 0,0 l/m 5,0 km/h (1 Bft) SO 135 0 min 7,4 C 15,4 C 13,8 km/h (3 Bft)
27.05.2019 04:50 21,4 C 15,3 C 59 % 1007,6 hPa 0,0 l/m 4,7 km/h (1 Bft) SW 225 0 min 7,3 C 15,3 C 16,7 km/h (3 Bft)
27.05.2019 04:40 21,4 C 15,1 C 60 % 1007,6 hPa 0,0 l/m 4,2 km/h (1 Bft) S-SO 157 0 min 7,4 C 15,1 C 6,1 km/h (2 Bft)
27.05.2019 04:30 21,5 C 15,1 C 60 % 1007,6 hPa 0,0 l/m 3,7 km/h (1 Bft) SW 225 0 min 7,4 C 15,1 C 11,1 km/h (2 Bft)
27.05.2019 04:20 21,5 C 15,2 C 59 % 1007,8 hPa 0,0 l/m 3,5 km/h (1 Bft) S 180 0 min 7,2 C 15,2 C 8,9 km/h (2 Bft)
27.05.2019 04:10 21,5 C 15,2 C 59 % 1007,8 hPa 0,0 l/m 2,3 km/h (1 Bft) S 180 0 min 7,2 C 15,2 C 4,7 km/h (1 Bft)
27.05.2019 04:00 21,5 C 15,4 C 59 % 1007,9 hPa 0,0 l/m 2,3 km/h (1 Bft) NW 315 0 min 7,4 C 15,4 C 3,2 km/h (1 Bft)
27.05.2019 03:50 21,5 C 16,0 C 57 % 1007,9 hPa 0,0 l/m 4,7 km/h (1 Bft) S-SW 202 0 min 7,5 C 16,0 C 3,5 km/h (1 Bft)
27.05.2019 03:40 21,5 C 16,0 C 57 % 1008,0 hPa 0,0 l/m 4,3 km/h (1 Bft) W-SW 247 0 min 7,5 C 16,0 C 15,3 km/h (3 Bft)
27.05.2019 03:30 21,6 C 16,2 C 56 % 1008,0 hPa 0,0 l/m 4,8 km/h (1 Bft) N-NW 337 0 min 7,4 C 16,2 C 3,1 km/h (1 Bft)
27.05.2019 03:20 21,6 C 16,3 C 56 % 1008,3 hPa 0,0 l/m 5,1 km/h (1 Bft) W-SW 247 0 min 7,5 C 16,3 C 12,9 km/h (3 Bft)
27.05.2019 03:10 21,6 C 16,3 C 56 % 1008,3 hPa 0,0 l/m 5,1 km/h (1 Bft) N-NO 22 0 min 7,5 C 16,3 C 9,5 km/h (2 Bft)
27.05.2019 03:00 21,6 C 16,0 C 57 % 1008,4 hPa 0,0 l/m 0,0 km/h (0 Bft) W 270 0 min 7,5 C 16,0 C 0,0 km/h (0 Bft)
27.05.2019 02:50 21,6 C 15,9 C 58 % 1008,4 hPa 0,0 l/m 0,0 km/h (0 Bft) W 270 0 min 7,6 C 15,9 C 0,0 km/h (0 Bft)
27.05.2019 02:40 21,6 C 16,0 C 57 % 1008,4 hPa 0,0 l/m 0,0 km/h (0 Bft) W 270 0 min 7,5 C 16,0 C 0,0 km/h (0 Bft)
27.05.2019 02:30 21,6 C 15,8 C 58 % 1008,4 hPa 0,0 l/m 0,0 km/h (0 Bft) W 270 0 min 7,6 C 15,8 C 0,0 km/h (0 Bft)
27.05.2019 02:20 21,6 C 15,9 C 58 % 1008,4 hPa 0,0 l/m 0,0 km/h (0 Bft) W 270 0 min 7,6 C 15,9 C 0,0 km/h (0 Bft)
27.05.2019 02:10 21,6 C 16,1 C 56 % 1008,4 hPa 0,0 l/m 0,0 km/h (0 Bft) W 270 0 min 7,3 C 16,1 C 0,0 km/h (0 Bft)
27.05.2019 02:00 21,6 C 16,3 C 56 % 1008,4 hPa 0,0 l/m 0,0 km/h (0 Bft) W 270 0 min 7,5 C 16,3 C 0,0 km/h (0 Bft)
27.05.2019 01:50 21,7 C 16,4 C 56 % 1008,4 hPa 0,0 l/m 0,0 km/h (0 Bft) W 270 0 min 7,6 C 16,4 C 0,0 km/h (0 Bft)
27.05.2019 01:40 21,7 C 16,3 C 57 % 1008,5 hPa 0,0 l/m 0,0 km/h (0 Bft) W 270 0 min 7,8 C 16,3 C 0,0 km/h (0 Bft)
27.05.2019 01:30 21,7 C 16,4 C 57 % 1008,5 hPa 0,0 l/m 0,0 km/h (0 Bft) W 270 0 min 7,9 C 16,4 C 0,0 km/h (0 Bft)
27.05.2019 01:20 21,7 C 16,5 C 56 % 1008,8 hPa 0,0 l/m 0,0 km/h (0 Bft) W 270 0 min 7,7 C 16,5 C 0,0 km/h (0 Bft)
27.05.2019 01:10 21,8 C 16,2 C 58 % 1008,8 hPa 0,0 l/m 0,0 km/h (0 Bft) W 270 0 min 7,9 C 16,2 C 0,0 km/h (0 Bft)
27.05.2019 01:00 21,8 C 16,3 C 58 % 1008,8 hPa 0,0 l/m 0,0 km/h (0 Bft) W 270 0 min 8,0 C 16,3 C 0,0 km/h (0 Bft)
27.05.2019 00:50 21,8 C 16,1 C 59 % 1008,8 hPa 0,0 l/m 0,0 km/h (0 Bft) W 270 0 min 8,1 C 16,1 C 0,0 km/h (0 Bft)
27.05.2019 00:40 21,8 C 16,0 C 59 % 1008,9 hPa 0,0 l/m 0,0 km/h (0 Bft) W 270 0 min 8,0 C 16,0 C 0,0 km/h (0 Bft)
27.05.2019 00:30 21,8 C 16,0 C 59 % 1008,9 hPa 0,0 l/m 0,0 km/h (0 Bft) W 270 0 min 8,0 C 16,0 C 0,0 km/h (0 Bft)
27.05.2019 00:20 21,8 C 16,1 C 59 % 1009,1 hPa 0,0 l/m 0,0 km/h (0 Bft) W 270 0 min 8,1 C 16,1 C 0,0 km/h (0 Bft)
27.05.2019 00:10 21,8 C 16,1 C 60 % 1009,1 hPa 0,0 l/m 0,0 km/h (0 Bft) W 270 0 min 8,3 C 16,1 C 0,0 km/h (0 Bft)
27.05.2019 00:00 21,8 C 15,6 C 63 % 1009,1 hPa 0,0 l/m 0,0 km/h (0 Bft) W 270 0 min 8,6 C 15,6 C 0,0 km/h (0 Bft)
26.05.2019 23:50 21,8 C 15,5 C 63 % 1009,1 hPa 0,0 l/m 0,0 km/h (0 Bft) W 270 0 min 8,5 C 15,5 C 0,0 km/h (0 Bft)
26.05.2019 23:40 21,9 C 15,5 C 63 % 1009,1 hPa 0,0 l/m 0,0 km/h (0 Bft) W 270 0 min 8,5 C 15,5 C 0,0 km/h (0 Bft)
26.05.2019 23:30 21,9 C 15,9 C 62 % 1009,1 hPa 0,0 l/m 0,0 km/h (0 Bft) W 270 0 min 8,6 C 15,9 C 0,0 km/h (0 Bft)
26.05.2019 23:19 21,9 C 15,5 C 64 % 1009,4 hPa 0,0 l/m 0,0 km/h (0 Bft) W 270 0 min 8,7 C 15,5 C 0,0 km/h (0 Bft)
26.05.2019 23:10 22,0 C 15,1 C 65 % 1009,4 hPa 0,0 l/m 0,0 km/h (0 Bft) W 270 0 min 8,6 C 15,1 C 0,0 km/h (0 Bft)
26.05.2019 23:00 22,0 C 14,7 C 66 % 1009,7 hPa 0,0 l/m 0,0 km/h (0 Bft) W 270 0 min 8,4 C 14,7 C 0,0 km/h (0 Bft)
26.05.2019 22:50 22,0 C 14,7 C 67 % 1009,7 hPa 0,0 l/m 0,0 km/h (0 Bft) W 270 0 min 8,6 C 14,7 C 0,0 km/h (0 Bft)
26.05.2019 22:40 22,1 C 14,9 C 65 % 1009,7 hPa 0,0 l/m 0,0 km/h (0 Bft) W 270 0 min 8,4 C 14,9 C 0,0 km/h (0 Bft)
26.05.2019 22:30 22,1 C 15,0 C 65 % 1009,7 hPa 0,0 l/m 0,0 km/h (0 Bft) W 270 0 min 8,5 C 15,0 C 0,0 km/h (0 Bft)
26.05.2019 22:20 22,1 C 14,8 C 67 % 1010,0 hPa 0,0 l/m 0,0 km/h (0 Bft) W 270 0 min 8,7 C 14,8 C 0,0 km/h (0 Bft)
26.05.2019 22:10 22,1 C 14,9 C 66 % 1010,0 hPa 0,0 l/m 0,0 km/h (0 Bft) W 270 0 min 8,6 C 14,9 C 0,0 km/h (0 Bft)
26.05.2019 22:00 22,1 C 15,0 C 66 % 1009,9 hPa 0,0 l/m 0,0 km/h (0 Bft) W 270 0 min 8,7 C 15,0 C 0,0 km/h (0 Bft)
26.05.2019 21:50 22,1 C 14,9 C 67 % 1009,9 hPa 0,0 l/m 0,0 km/h (0 Bft) W 270 0 min 8,8 C 14,9 C 0,0 km/h (0 Bft)
26.05.2019 21:40 22,2 C 15,1 C 68 % 1009,9 hPa 0,0 l/m 0,0 km/h (0 Bft) W 270 0 min 9,2 C 15,1 C 0,0 km/h (0 Bft)
26.05.2019 21:30 22,2 C 15,5 C 67 % 1009,9 hPa 0,0 l/m 0,0 km/h (0 Bft) W 270 0 min 9,4 C 15,5 C 0,0 km/h (0 Bft)
26.05.2019 21:20 22,2 C 16,0 C 64 % 1009,9 hPa 0,0 l/m 0,0 km/h (0 Bft) W 270 0 min 9,2 C 16,0 C 0,0 km/h (0 Bft)
26.05.2019 21:10 22,2 C 16,5 C 62 % 1009,9 hPa 0,0 l/m 0,0 km/h (0 Bft) W 270 0 min 9,2 C 16,5 C 0,0 km/h (0 Bft)
26.05.2019 21:00 22,3 C 17,1 C 60 % 1010,1 hPa 0,0 l/m 0,0 km/h (0 Bft) W 270 0 min 9,3 C 17,1 C 0,0 km/h (0 Bft)
26.05.2019 20:50 22,4 C 17,7 C 59 % 1010,1 hPa 0,0 l/m 0,0 km/h (0 Bft) W 270 0 min 9,6 C 17,7 C 0,0 km/h (0 Bft)
26.05.2019 20:40 22,4 C 18,3 C 57 % 1010,4 hPa 0,0 l/m 0,0 km/h (0 Bft) W 270 10 min 9,6 C 18,3 C 0,0 km/h (0 Bft)
26.05.2019 20:30 22,4 C 18,9 C 56 % 1010,4 hPa 0,0 l/m 0,0 km/h (0 Bft) W 270 10 min 9,9 C 18,9 C 0,0 km/h (0 Bft)
26.05.2019 20:20 22,4 C 19,4 C 54 % 1010,6 hPa 0,0 l/m 0,0 km/h (0 Bft) W 270 10 min 9,8 C 19,4 C 0,0 km/h (0 Bft)
26.05.2019 20:10 22,4 C 19,8 C 53 % 1010,6 hPa 0,0 l/m 0,0 km/h (0 Bft) W 270 10 min 9,9 C 19,8 C 0,0 km/h (0 Bft)
26.05.2019 20:00 22,4 C 20,0 C 52 % 1010,5 hPa 0,0 l/m 0,0 km/h (0 Bft) W 270 10 min 9,8 C 20,0 C 0,0 km/h (0 Bft)
26.05.2019 19:50 22,2 C 20,2 C 51 % 1010,5 hPa 0,0 l/m 0,0 km/h (0 Bft) W 270 10 min 9,7 C 20,2 C 0,0 km/h (0 Bft)
26.05.2019 19:40 22,2 C 20,6 C 50 % 1010,4 hPa 0,0 l/m 0,0 km/h (0 Bft) W 270 10 min 9,8 C 20,6 C 0,0 km/h (0 Bft)
26.05.2019 19:30 22,4 C 21,2 C 49 % 1010,4 hPa 0,0 l/m 0,0 km/h (0 Bft) W 270 10 min 10,1 C 21,2 C 0,0 km/h (0 Bft)
26.05.2019 19:20 22,4 C 21,8 C 49 % 1010,5 hPa 0,0 l/m 0,0 km/h (0 Bft) W 270 10 min 10,6 C 21,8 C 0,0 km/h (0 Bft)
26.05.2019 19:10 22,4 C 22,5 C 49 % 1010,5 hPa 0,0 l/m 0,0 km/h (0 Bft) W 270 10 min 11,2 C 22,5 C 0,0 km/h (0 Bft)
26.05.2019 19:00 22,5 C 21,6 C 49 % 1010,6 hPa 0,0 l/m 0,0 km/h (0 Bft) W 270 10 min 10,4 C 21,6 C 0,0 km/h (0 Bft)
26.05.2019 18:50 22,6 C 21,5 C 48 % 1010,6 hPa 0,0 l/m 0,0 km/h (0 Bft) W 270 10 min 10,0 C 21,5 C 0,0 km/h (0 Bft)
26.05.2019 18:40 22,6 C 21,9 C 46 % 1010,6 hPa 0,0 l/m 0,0 km/h (0 Bft) W 270 0 min 9,7 C 21,9 C 0,0 km/h (0 Bft)
26.05.2019 18:30 22,6 C 21,7 C 47 % 1010,6 hPa 0,0 l/m 5,1 km/h (1 Bft) W 270 10 min 9,9 C 21,7 C 8,4 km/h (2 Bft)
26.05.2019 18:20 22,7 C 22,1 C 46 % 1010,6 hPa 0,0 l/m 5,1 km/h (1 Bft) W 270 0 min 9,9 C 22,1 C 8,4 km/h (2 Bft)
26.05.2019 18:10 22,7 C 22,1 C 46 % 1010,6 hPa 0,0 l/m 4,5 km/h (1 Bft) W 270 0 min 9,9 C 22,1 C 6,9 km/h (2 Bft)
26.05.2019 18:00 22,7 C 22,0 C 47 % 1010,8 hPa 0,0 l/m 4,0 km/h (1 Bft) W-SW 247 0 min 10,2 C 22,0 C 1,9 km/h (1 Bft)
26.05.2019 17:50 22,8 C 22,0 C 46 % 1010,8 hPa 0,0 l/m 5,5 km/h (1 Bft) SW 225 0 min 9,8 C 22,0 C 18,0 km/h (3 Bft)
26.05.2019 17:40 22,8 C 22,0 C 46 % 1010,8 hPa 0,0 l/m 5,8 km/h (2 Bft) W 270 0 min 9,8 C 22,0 C 4,2 km/h (1 Bft)
26.05.2019 17:30 22,8 C 22,2 C 46 % 1010,8 hPa 0,0 l/m 5,1 km/h (1 Bft) W-SW 247 0 min 10,0 C 22,2 C 4,5 km/h (1 Bft)
26.05.2019 17:20 22,8 C 21,8 C 46 % 1011,2 hPa 0,0 l/m 6,1 km/h (2 Bft) W 270 0 min 9,7 C 21,8 C 5,5 km/h (1 Bft)
26.05.2019 17:10 22,9 C 21,6 C 45 % 1011,2 hPa 0,0 l/m 6,9 km/h (2 Bft) N-NW 337 0 min 9,2 C 21,4 C 11,9 km/h (2 Bft)
26.05.2019 17:00 23,0 C 22,0 C 45 % 1011,2 hPa 0,0 l/m 6,6 km/h (2 Bft) W 270 0 min 9,5 C 21,9 C 6,9 km/h (2 Bft)
26.05.2019 16:50 23,0 C 22,5 C 45 % 1011,2 hPa 0,0 l/m 6,0 km/h (2 Bft) W 270 10 min 10,0 C 22,5 C 6,9 km/h (2 Bft)
26.05.2019 16:40 22,9 C 22,4 C 46 % 1011,4 hPa 0,0 l/m 5,8 km/h (2 Bft) W 270 10 min 10,2 C 22,4 C 10,9 km/h (2 Bft)
26.05.2019 16:30 22,9 C 22,1 C 45 % 1011,4 hPa 0,0 l/m 6,6 km/h (2 Bft) W 270 10 min 9,6 C 22,0 C 4,8 km/h (1 Bft)
26.05.2019 16:20 22,9 C 22,5 C 45 % 1011,3 hPa 0,0 l/m 6,4 km/h (2 Bft) W 270 10 min 10,0 C 22,5 C 8,5 km/h (2 Bft)
26.05.2019 16:10 22,8 C 22,3 C 45 % 1011,3 hPa 0,0 l/m 5,5 km/h (1 Bft) W-SW 247 10 min 9,8 C 22,3 C 16,3 km/h (3 Bft)
26.05.2019 16:00 22,7 C 22,0 C 46 % 1011,2 hPa 0,0 l/m 6,6 km/h (2 Bft) NW 315 0 min 9,8 C 21,9 C 8,5 km/h (2 Bft)
26.05.2019 15:50 22,7 C 22,2 C 46 % 1011,2 hPa 0,0 l/m 4,8 km/h (1 Bft) W 270 0 min 10,0 C 22,2 C 9,7 km/h (2 Bft)
26.05.2019 15:40 22,6 C 22,2 C 46 % 1011,4 hPa 0,0 l/m 5,8 km/h (2 Bft) SW 225 0 min 10,0 C 22,2 C 10,3 km/h (2 Bft)
26.05.2019 15:30 22,6 C 21,8 C 45 % 1011,4 hPa 0,0 l/m 5,8 km/h (2 Bft) W-SW 247 0 min 9,3 C 21,8 C 10,5 km/h (2 Bft)
26.05.2019 15:20 22,6 C 22,4 C 45 % 1011,8 hPa 0,0 l/m 6,1 km/h (2 Bft) W-SW 247 0 min 9,9 C 22,4 C 8,0 km/h (2 Bft)
26.05.2019 15:10 22,6 C 21,7 C 45 % 1011,8 hPa 0,0 l/m 6,4 km/h (2 Bft) W 270 0 min 9,2 C 21,7 C 8,0 km/h (2 Bft)
26.05.2019 15:00 22,8 C 22,0 C 44 % 1011,9 hPa 0,0 l/m 6,6 km/h (2 Bft) NW 315 0 min 9,2 C 21,9 C 4,5 km/h (1 Bft)
26.05.2019 14:50 22,7 C 22,4 C 43 % 1011,9 hPa 0,0 l/m 6,9 km/h (2 Bft) W-NW 292 10 min 9,2 C 22,2 C 8,4 km/h (2 Bft)
26.05.2019 14:40 22,7 C 22,2 C 45 % 1011,8 hPa 0,0 l/m 6,1 km/h (2 Bft) W-NW 292 10 min 9,7 C 22,2 C 6,9 km/h (2 Bft)
26.05.2019 14:30 22,6 C 21,9 C 44 % 1011,8 hPa 0,0 l/m 7,4 km/h (2 Bft) W 270 10 min 9,1 C 21,5 C 15,3 km/h (3 Bft)
26.05.2019 14:20 22,4 C 22,0 C 47 % 1012,0 hPa 0,0 l/m 5,3 km/h (1 Bft) NW 315 10 min 10,2 C 22,0 C 6,0 km/h (2 Bft)
26.05.2019 14:10 22,4 C 21,1 C 45 % 1012,0 hPa 0,0 l/m 7,2 km/h (2 Bft) W-NW 292 10 min 8,7 C 20,8 C 7,2 km/h (2 Bft)
26.05.2019 14:00 22,2 C 21,4 C 46 % 1012,2 hPa 0,0 l/m 7,1 km/h (2 Bft) O-SO 112 10 min 9,3 C 21,1 C 8,9 km/h (2 Bft)
26.05.2019 13:50 22,2 C 21,1 C 46 % 1012,2 hPa 0,0 l/m 7,1 km/h (2 Bft) NW 315 10 min 9,0 C 20,8 C 6,6 km/h (2 Bft)
26.05.2019 13:40 22,1 C 20,7 C 49 % 1012,3 hPa 0,0 l/m 5,6 km/h (1 Bft) SW 225 10 min 9,6 C 20,7 C 7,6 km/h (2 Bft)
26.05.2019 13:30 22,1 C 21,2 C 51 % 1012,3 hPa 0,0 l/m 4,3 km/h (1 Bft) W-NW 292 10 min 10,7 C 21,2 C 3,5 km/h (1 Bft)
26.05.2019 13:20 22,0 C 20,6 C 48 % 1012,5 hPa 0,0 l/m 4,7 km/h (1 Bft) SW 225 10 min 9,2 C 20,6 C 4,5 km/h (1 Bft)
26.05.2019 13:10 21,9 C 20,7 C 52 % 1012,5 hPa 0,0 l/m 4,2 km/h (1 Bft) NW 315 10 min 10,5 C 20,7 C 15,0 km/h (3 Bft)
26.05.2019 13:00 21,8 C 20,2 C 48 % 1012,6 hPa 0,0 l/m 3,7 km/h (1 Bft) W-NW 292 10 min 8,8 C 20,2 C 2,9 km/h (1 Bft)
26.05.2019 12:50 21,8 C 20,2 C 50 % 1012,6 hPa 0,0 l/m 5,8 km/h (2 Bft) W 270 10 min 9,4 C 20,2 C 14,0 km/h (3 Bft)
26.05.2019 12:40 21,7 C 19,9 C 53 % 1012,3 hPa 0,0 l/m 3,4 km/h (1 Bft) NW 315 10 min 10,0 C 19,9 C 6,3 km/h (2 Bft)
26.05.2019 12:30 21,6 C 20,2 C 53 % 1012,3 hPa 0,0 l/m 3,5 km/h (1 Bft) W 270 10 min 10,3 C 20,2 C 4,7 km/h (1 Bft)
26.05.2019 12:20 21,6 C 20,1 C 54 % 1012,4 hPa 0,0 l/m 2,7 km/h (1 Bft) W 270 10 min 10,5 C 20,1 C 5,5 km/h (1 Bft)
26.05.2019 12:10 21,5 C 19,7 C 53 % 1012,4 hPa 0,0 l/m 3,2 km/h (1 Bft) SW 225 10 min 9,8 C 19,7 C 2,9 km/h (1 Bft)
26.05.2019 12:00 21,4 C 19,8 C 57 % 1012,6 hPa 0,0 l/m 3,5 km/h (1 Bft) W 270 10 min 11,0 C 19,8 C 6,1 km/h (2 Bft)
26.05.2019 11:50 21,4 C 19,3 C 57 % 1012,6 hPa 0,0 l/m 3,2 km/h (1 Bft) W-SW 247 10 min 10,6 C 19,3 C 3,9 km/h (1 Bft)
26.05.2019 11:40 21,2 C 18,9 C 52 % 1012,8 hPa 0,0 l/m 4,3 km/h (1 Bft) NW 315 10 min 8,8 C 18,9 C 6,3 km/h (2 Bft)
26.05.2019 11:30 21,2 C 18,7 C 53 % 1012,8 hPa 0,0 l/m 4,3 km/h (1 Bft) W 270 10 min 8,9 C 18,7 C 3,7 km/h (1 Bft)
26.05.2019 11:20 21,2 C 18,6 C 55 % 1012,8 hPa 0,0 l/m 1,8 km/h (1 Bft) SW 225 10 min 9,4 C 18,6 C 6,4 km/h (2 Bft)
26.05.2019 11:10 21,2 C 18,8 C 56 % 1012,8 hPa 0,0 l/m 2,7 km/h (1 Bft) W-SW 247 10 min 9,8 C 18,8 C 3,1 km/h (1 Bft)
26.05.2019 11:00 21,1 C 18,2 C 56 % 1012,9 hPa 0,0 l/m 4,0 km/h (1 Bft) SO 135 10 min 9,3 C 18,2 C 4,3 km/h (1 Bft)
26.05.2019 10:50 21,0 C 18,6 C 57 % 1012,9 hPa 0,0 l/m 2,6 km/h (1 Bft) SW 225 10 min 9,9 C 18,6 C 2,7 km/h (1 Bft)
26.05.2019 10:40 21,0 C 18,1 C 57 % 1013,0 hPa 0,0 l/m 4,2 km/h (1 Bft) W-SW 247 10 min 9,4 C 18,1 C 4,3 km/h (1 Bft)
26.05.2019 10:30 21,0 C 17,8 C 54 % 1013,0 hPa 0,0 l/m 5,0 km/h (1 Bft) W 270 10 min 8,4 C 17,8 C 8,0 km/h (2 Bft)
26.05.2019 10:20 20,9 C 17,6 C 56 % 1013,0 hPa 0,0 l/m 5,0 km/h (1 Bft) NW 315 10 min 8,7 C 17,6 C 4,8 km/h (1 Bft)
26.05.2019 10:10 20,9 C 17,3 C 55 % 1013,0 hPa 0,0 l/m 4,8 km/h (1 Bft) NW 315 10 min 8,2 C 17,3 C 3,9 km/h (1 Bft)
26.05.2019 10:00 20,8 C 16,9 C 54 % 1012,9 hPa 0,0 l/m 6,1 km/h (2 Bft) W 270 10 min 7,5 C 16,9 C 5,0 km/h (1 Bft)
_ Min-Zeit 10:00 22:50 14:50 07:30 - 18:40 - - - 04:10 22:50 18:40
Minimum _ 20,8 C 14,7 C 43 % 1007,4 hPa - 0,0 km/h (0 Bft) - - - 7,2 C 14,7 C 0,0 km/h (0 Bft)
_ Max-Zeit 16:50 16:20 21:40 10:10 10:00 14:30 - - 10:00 19:10 16:20 07:40
Maximum _ 23,0 C 22,5 C 68 % 1013,0 hPa 0,0 l/m 7,4 km/h
W (2 Bft)
- - 10 min 11,2 C 22,5 C 19,3 km/h
S (3 Bft)
Durchschnitt _ 21,8 C 18,2 C 55 % 1010,1 hPa #0,0 l/m 3,3 km/h (1 Bft) W - #40 min. 8,8 C 18,2 C 4,8 km/h (1 Bft)

©2019 Markus Bahr